{"data":{"norad_id":63268,"epoch":"2026-05-24T23:48:39.484224Z","epoch_age_seconds":79649,"freshness":"FRESH","line1":"1 63268U 25053D   26144.99212366  .00170775  00000+0  13044-2 0  9995","line2":"2 63268  43.0026  11.9654 0002260 277.4221  82.6390 15.70890890 69676","mean_motion":15.7089089,"eccentricity":0.000226,"inclination_deg":43.0026,"raan_deg":11.9654,"arg_perigee_deg":277.4221,"mean_anomaly_deg":82.639,"bstar":0.0013044,"rev_number":6967,"period_min":91.667728749767,"perigee_km":354.82761837667,"apogee_km":357.87160632545,"semimajor_km":6734.4866123511,"source":"CELESTRAK","updated_at":"2026-05-25T13:38:19.924359Z"}}